Location: Unspecified
(0.0000°N, 0.0000°E)
Time: 05:27:38
(UTC+00:00)

STARLINK-11193 [DTC] - Visible Passes

Search period start: 17 September 2024 00:00
Search period end: 27 September 2024 00:00
Orbit: 359 x 360 km, 53.2° (Epoch: 17 September)

Date Brightness Start Highest point End Pass type
(mag) Time Alt. Az. Time Alt. Az. Time Alt. Az.
17 Sep 5.6 19:17:23 10° S 19:17:30 11° S 19:17:30 11° S visible
18 Sep 6.1 19:46:26 10° WSW 19:46:52 13° WSW 19:46:52 13° WSW visible
19 Sep 2.9 18:39:39 10° SSW 18:42:34 49° ESE 18:44:29 18° NE visible
20 Sep 5.6 19:09:09 10° W 19:11:15 18° NW 19:13:21 10° N visible
22 Sep 5.9 18:31:53 10° W 18:33:22 13° NW 18:34:51 10° NNW visible
24 Sep 4.0 04:50:38 10° NNW 04:53:27 40° ENE 04:56:17 10° SE visible
25 Sep 4.2 05:19:36 10° WNW 05:21:54 21° SW 05:24:15 10° S visible
26 Sep 4.9 04:16:44 25° SE 04:16:44 25° SE 04:18:10 10° SE visible
